Change the Weather History Date:

Sunday, January 5, 2014

  Actual Average Record
Temperature  
Mean Temperature 16 °F -  
Max Temperature 32 °F 33 °F 57 °F (2007)
Min Temperature 0 °F 17 °F 0 °F (2014)
Degree Days  
Heating Degree Days 49    
Moisture  
Dew Point 17 °F    
Average Humidity 79    
Maximum Humidity 92    
Minimum Humidity 52    
Precipitation  
Precipitation 0.03 in - - ()
Sea Level Pressure  
Sea Level Pressure 30.17 in    
Wind  
Wind Speed 3 mph (North)    
Max Wind Speed 8 mph    
Max Gust Speed -    
Visibility 6 miles    
Events Rain    
Averages and records for this station are not official NWS values.
T = Trace of Precipitation, MM = Missing Value Source: NWS Daily Summary

Daily Weather History Graph

Daily Weather History Graph

Search for Another Location

Airport or City:

Trip Planner

Search our weather history database for the weather conditions in past years. The results will help you decide how hot, cold, wet, or windy it might be!

Date:

Astronomy

Jan. 05, 2014 Rise Set
Actual Time 7:19 AM EST 4:33 PM EST
Civil Twilight 6:47 AM EST 5:04 PM EST
Nautical Twilight 6:12 AM EST 5:39 PM EST
Astronomical Twilight 5:39 AM EST 6:13 PM EST
Moon 9:53 AM EST (1/5) 10:04 PM EST (1/5)
Length of Visible Light 10h 16m
Length of Day
9h 13m
Waxing Crescent, 24% of the Moon is Illuminated
Jan 5
Waxing Crescent
Jan 7
First Quarter
Jan 15
Full
Jan 24
Last Quarter
Jan 30
New

Hourly Weather History & Observations

Time (EST) Temp. Windchill Dew Point Humidity Pressure Visibility Wind Dir Wind Speed Gust Speed Precip Events Conditions
12:53 AM 12.0 °F 4.1 °F 3.9 °F 70% 30.29 in 10.0 mi SSW 4.6 mph - N/A   Clear
1:53 AM 7.0 °F 0.1 °F 1.9 °F 80% 30.30 in 10.0 mi SSE 3.5 mph - N/A   Clear
2:53 AM 5.0 °F - -0.0 °F 80% 30.28 in 10.0 mi Calm Calm - N/A   Clear
3:53 AM 5.0 °F -2.1 °F 1.0 °F 84% 30.27 in 10.0 mi North 3.5 mph - N/A   Clear
4:53 AM 5.0 °F - 1.0 °F 84% 30.29 in 10.0 mi Calm Calm - N/A   Clear
5:53 AM 1.9 °F - -2.9 °F 80% 30.31 in 10.0 mi Calm Calm - N/A   Clear
6:53 AM -0.0 °F - -4.0 °F 83% 30.34 in 10.0 mi Calm Calm - N/A   Clear
7:53 AM 1.0 °F -6.7 °F -4.0 °F 79% 30.34 in 8.0 mi North 3.5 mph - N/A   Clear
8:53 AM 6.1 °F - 1.9 °F 83% 30.35 in 9.0 mi Calm Calm - N/A   Clear
9:53 AM 16.0 °F - 6.1 °F 65% 30.35 in 10.0 mi Calm Calm - N/A   Clear
10:53 AM 23.0 °F - 10.0 °F 58% 30.32 in 10.0 mi Calm Calm - N/A   Clear
11:53 AM 25.0 °F - 12.0 °F 58% 30.30 in 10.0 mi Calm Calm - N/A   Overcast
12:53 PM 28.9 °F - 15.1 °F 56% 30.27 in 10.0 mi Calm Calm - N/A   Scattered Clouds
1:53 PM 28.9 °F - 14.0 °F 54% 30.25 in 10.0 mi Calm Calm - N/A   Mostly Cloudy
2:53 PM 30.9 °F 27.5 °F 16.0 °F 54% 30.24 in 10.0 mi South 3.5 mph - N/A   Overcast
3:39 PM 32.0 °F - 16.0 °F 52% 30.21 in 10.0 mi Calm Calm - N/A   Overcast
3:53 PM 32.0 °F - 17.1 °F 54% 30.23 in 10.0 mi Calm Calm - N/A   Overcast
4:38 PM 30.0 °F 26.5 °F 19.0 °F 64% 30.19 in 9.0 mi SSE 3.5 mph - N/A   Overcast
4:53 PM 30.0 °F - 21.0 °F 69% 30.21 in 10.0 mi Calm Calm - N/A   Overcast
5:45 PM 28.9 °F - 23.0 °F 78% 30.17 in 7.0 mi Calm Calm - N/A   Overcast
5:53 PM 30.0 °F - 23.0 °F 75% 30.20 in 4.0 mi Calm Calm - N/A   Haze
6:53 PM 28.0 °F 20.8 °F 25.0 °F 88% 30.18 in 2.5 mi North 6.9 mph - 0.00 in   Overcast
7:11 PM 28.0 °F 20.8 °F 26.1 °F 92% 30.14 in 1.8 mi North 6.9 mph - N/A   Overcast
7:37 PM 28.0 °F 20.0 °F 26.1 °F 92% 30.12 in 1.8 mi NNE 8.1 mph - N/A   Overcast
7:46 PM 28.0 °F 21.7 °F 26.1 °F 92% 30.11 in 2.5 mi NNE 5.8 mph - N/A   Overcast
7:53 PM 28.0 °F 20.0 °F 26.1 °F 92% 30.14 in 2.5 mi North 8.1 mph - N/A   Overcast
8:31 PM 28.9 °F 21.9 °F 26.1 °F 89% 30.08 in 2.0 mi North 6.9 mph - N/A   Overcast
8:53 PM 28.9 °F 22.8 °F 26.1 °F 89% 30.09 in 2.0 mi North 5.8 mph - N/A   Overcast
9:00 PM 28.9 °F 22.8 °F 27.0 °F 92% 30.06 in 1.0 mi North 5.8 mph - N/A   Overcast
9:53 PM 28.9 °F 22.8 °F 27.0 °F 92% 30.03 in 1.0 mi North 5.8 mph - 0.00 in Rain Light Freezing Rain
10:09 PM 30.0 °F 25.2 °F 28.0 °F 92% 29.99 in 1.0 mi Variable 4.6 mph - 0.00 in   Overcast
10:17 PM 30.0 °F 26.5 °F 28.0 °F 92% 29.97 in 1.0 mi North 3.5 mph - 0.00 in Rain Light Freezing Rain
10:53 PM 30.0 °F 23.2 °F 28.0 °F 92% 29.95 in 1.5 mi North 6.9 mph - 0.02 in Rain Light Freezing Rain
11:09 PM 30.9 °F 24.3 °F 28.0 °F 89% 29.92 in 2.0 mi NNW 6.9 mph - 0.00 in Rain Light Freezing Rain
11:25 PM 30.9 °F 25.2 °F 28.9 °F 92% 29.89 in 3.0 mi North 5.8 mph - 0.01 in Rain Light Freezing Rain
11:32 PM 30.9 °F 23.5 °F 28.9 °F 92% 29.89 in 2.0 mi North 8.1 mph - 0.01 in Rain Light Freezing Rain
11:53 PM 30.9 °F 24.3 °F 28.9 °F 92% 29.88 in 2.0 mi North 6.9 mph - 0.01 in Rain Light Freezing Rain